User: anonymous   Login
Location: Caltech
(34.1382°N, 118.1253°W)
Time: 06:18:29
(UTC-07:00)
Language:

Meteor 1-11 Rocket - Orbit

View from above orbital plane
View from above orbital plane
View from above satellite
View from above satellite

Ground track
Ground track

The orbit data is extracted from the following two-line orbital elements,

1 05918U 72022B   15185.56164337  .00000153  00000-0  84526-4 0  9999
2 05918 081.2386 296.1877 0058892 171.2996 188.9209 14.05773998217730
Epoch (UTC): 04 July 2015 13:28:45
Eccentricity: 0.0058892
inclination: 81.2386°
perigee height: 831 km
apogee height: 916 km
right ascension of ascending node: 296.1877°
argument of perigee: 171.2996°
revolutions per day: 14.05773998
mean anomaly at epoch: 188.9209°
orbit number at epoch: 21773

The dashed part of the orbit path shows where the satellite is in the earth's shadow,  

DLR